Fryeburg, ME

5:22 AM EDT on June 27, 2017 (GMT -0400)
Eastern Slopes Regional

Weather History for KIZG - July, 2011

Change the Weather History Date:

Wednesday, July 13, 2011

  Actual Average Record
Temperature  
Mean Temperature 72 °F -  
Max Temperature 84 °F 78 °F 93 °F (2012)
Min Temperature 63 °F 53 °F 48 °F (2002)
Cooling Degree Days 8    
Growing Degree Days 22 (Base 50)    
Moisture  
Dew Point 60 °F    
Average Humidity 71    
Maximum Humidity 96    
Minimum Humidity 38    
Precipitation  
Precipitation 0.01 in - - ()
Sea Level Pressure  
Sea Level Pressure 29.72 in    
Wind  
Wind Speed 2 mph (NW)    
Max Wind Speed 12 mph    
Max Gust Speed -    
Visibility 10 miles    
Events Rain , Thunderstorm    
Averages and records for this station are not official NWS values.
T = Trace of Precipitation, MM = Missing Value Source: NWS Daily Summary

Daily Weather History Graph

Daily Weather History Graph

Search for Another Location

Airport or City:

Trip Planner

Search our weather history database for the weather conditions in past years. The results will help you decide how hot, cold, wet, or windy it might be!

Date:

Astronomy

Jul. 13, 2011 Rise Set
Actual Time 5:12 AM EDT 8:25 PM EDT
Civil Twilight 4:37 AM EDT 9:00 PM EDT
Nautical Twilight 3:52 AM EDT 9:46 PM EDT
Astronomical Twilight 2:56 AM EDT 10:41 PM EDT
Moon 7:13 PM EDT (7/13) 3:25 AM EDT (7/13)
Length of Visible Light 16h 23m
Length of Day
15h 12m
Waxing Gibbous, 97% of the Moon is Illuminated
Jul 13
Waxing Gibbous
Jul 15
Full
Jul 23
Last Quarter
Jul 30
New
Aug 6
First Quarter

Hourly Weather History & Observations

Time (EDT) Temp. Heat Index Dew Point Humidity Pressure Visibility Wind Dir Wind Speed Gust Speed Precip Events Conditions
12:54 AM 75.0 °F - 63.0 °F 66% 29.66 in 10.0 mi Calm Calm - N/A   Overcast
1:54 AM 70.0 °F - 64.0 °F 81% 29.65 in 10.0 mi Calm Calm - N/A   Partly Cloudy
2:54 AM 68.0 °F - 62.1 °F 81% 29.65 in 10.0 mi NW 3.5 mph - N/A   Clear
3:54 AM 64.9 °F - 61.0 °F 87% 29.65 in 10.0 mi NW 3.5 mph - N/A   Partly Cloudy
4:54 AM 63.0 °F - 61.0 °F 93% 29.67 in 10.0 mi Calm Calm - N/A   Clear
5:54 AM 64.0 °F - 62.1 °F 93% 29.68 in 10.0 mi Calm Calm - N/A   Mostly Cloudy
6:54 AM 70.0 °F - 64.0 °F 81% 29.69 in 10.0 mi Calm Calm - N/A   Clear
7:54 AM 73.9 °F - 62.1 °F 66% 29.70 in 10.0 mi Calm Calm - N/A   Clear
8:54 AM 77.0 °F - 60.1 °F 56% 29.69 in 10.0 mi West 5.8 mph - N/A   Clear
9:54 AM 78.1 °F - 59.0 °F 52% 29.69 in 10.0 mi WNW 4.6 mph - N/A   Mostly Cloudy
10:54 AM 78.1 °F - 59.0 °F 52% 29.69 in 10.0 mi WSW 4.6 mph - N/A   Overcast
11:54 AM 82.0 °F 81.3 °F 54.0 °F 38% 29.69 in 10.0 mi Calm Calm - N/A   Partly Cloudy
12:54 PM 81.0 °F 80.8 °F 55.9 °F 42% 29.70 in 10.0 mi North 11.5 mph - N/A   Partly Cloudy
1:54 PM 80.1 °F 80.1 °F 55.0 °F 42% 29.69 in 10.0 mi Variable 3.5 mph - N/A   Scattered Clouds
2:54 PM 78.1 °F - 59.0 °F 52% 29.70 in 10.0 mi NE 6.9 mph - N/A   Mostly Cloudy
4:54 PM 73.9 °F - 62.1 °F 66% 29.72 in 10.0 mi Calm Calm - N/A   Scattered Clouds
5:54 PM 73.0 °F - 61.0 °F 66% 29.73 in 10.0 mi Variable 5.8 mph - N/A   Overcast
6:54 PM 68.0 °F - 60.1 °F 76% 29.77 in 10.0 mi NW 3.5 mph - 0.00 in Rain , Thunderstorm Light Rain
7:10 PM 66.2 °F - 62.6 °F 88% 29.78 in 10.0 mi Calm Calm - 0.00 in Rain Light Rain
7:54 PM 66.0 °F - 63.0 °F 90% 29.78 in 10.0 mi Calm Calm - 0.00 in   Overcast
9:54 PM 64.0 °F - 63.0 °F 96% 29.84 in 10.0 mi Calm Calm - 0.00 in   Overcast
10:54 PM 64.0 °F - 61.0 °F 90% 29.85 in 10.0 mi Calm Calm - N/A   Clear
11:54 PM 64.0 °F - 55.0 °F 73% 29.85 in 10.0 mi North 3.5 mph - N/A   Clear